DECAYED

OBJECT C, 51826 (Decayed)

Orbit data source: Space-Track

You're viewing an Uncataloged Satellite

Recently launched and/or uncataloged satellites may have evolving metadata. Metadata may include but not limited to: Owner, Maufacturer, Bus, Motor, and Mission.

OBJECT C, 51826 was a satellite owned by Xiamen Tianwei (CN) in LEO that was launched on Sun, 27 Feb 2022 UTC via a CHANG ZHENG 8 launch vehicle from the Wenchang Satellite Launch Center (WSC). Unknown objects in Earth's orbit typically refer to objects detected orbiting the Earth but have not yet been identified or cataloged. These objects could be anything from previously untracked satellites, spent rocket stages, debris from satellite collisions, or even natural meteoroids temporarily captured by Earth's gravity. This object's orbit decayed before it could be identified.

Not visible in the next 10 days
Identifier
51826, 2022-019C
Orbit
Decayed
Last TLE update
5 months ago
Origin
Flag of CNXiamen Tianwei Technology Co. Ltd. (CN / PRC)
Manufacturer
Changguang WJ
Mission
Decayed Commercial Imaging
Bus & Motor
JL1MF02, Unknown motor
Mass
32.5 kg wet, 32.5 kg dry
Launch date (UTC)
2022-02-27 (3 years ago)
Launch vehicle
CHANG ZHENG 8
Launch site
Wenchang Satellite Launch Center (WSC)
Object type
Unknown
Shape & HBR
Box + 2 Pan, 1.5 m
Radar Cross Section
2.000 m², Medium (>0.1 m² and < 1m²)

Expand to show TLE details & history

TLE from 5 months ago
0 OBJECT C
1 51826U 22019C   25034.13466635  .10786365  24918-5  10578-2 0  9992
2 51826  97.3650 123.4139 0009824 284.5343  75.4866 16.38218520163360
Epoch: 2025-02-03T03:13Z
TLE epoch observation values (Epoch: 2025-02-03T03:13:55.172Z)
Latitude
0.00001°
Longitude
-58.62465°
Altitude
172.189 km
Speed
7.804 km/s
True Right ascension
08h 13m 39s
True Declination
0° 00' 00"
Sunlit
Object was in full shadow at epoch
Visualization orbit readout
Visualization observer readout
Orbital elements
Apogee altitude
173.784 km
Perigee altitude
160.924 km
Semi-major axis
6,545.491 km
Eccentricity
0.00098
Inclination
97.365°
RAAN
123.4139°
Arg. of periapsis
284.5343°
True anomaly
Unknown
Mean anomaly
75.4866°
Eccentric anomaly
Unknown
Mean motion
4.09855 °/min
Orbital period
87.84 mins
BSTAR
0.0010578
Loading maneuver chart data...
Loading SW <> Apogee altitude chart data...
Loading historical data...
Loading historical data...
Loading historical data...
Loading historical data...
Loading historical data...
Loading historical data...
Loading historical data...

OBJECT C Visibility

Observer location: undefined°, undefined°

This satellite is decayed
Span
Click to sort rows by Start time (UTC) header in descending order
Start Az.
Max El. time (UTC)
Max El. Az.
Max El.
End time (UTC)
End Az.
|